Location: Vale
(35.4830°N, 81.3830°W)
Time: 18:25:27
(UTC-04:00)

Amateur Radio Satellites - All Passes

Search period start: 29 March 2015 17:55
Search period end: 30 March 2015 17:55
Location: Vale, 35.4830°N, 81.3830°W

Satellite Date Start Highest point End Downlink Frequencies (MHz)
Time Altitude Azimuth
M-CUBED/EXP-1 PRIME 29 Mar 17:55:29 17:58:45 19° 96° (E) 18:02:07 437.505
MOZHAYETS 4 29 Mar 18:14:42 18:19:23 86° 283° (WNW) 18:24:00
SRMSAT 29 Mar 18:14:43 18:18:30 17° 181° (S) 18:22:16 437.500
CUTE-I 29 Mar 18:41:30 18:46:44 58° 74° (ENE) 18:52:01 437.470
Cubesat XI-IV 29 Mar 18:41:43 18:46:58 59° 74° (ENE) 18:52:16 437.490
JAS-2 29 Mar 18:42:12 18:46:17 15° 275° (W) 18:50:07 435.910
BEESAT 2 29 Mar 18:54:28 18:54:42 10° 43° (NE) 18:55:10 435.950
AUBIESAT-1 29 Mar 19:04:25 19:09:17 88° 285° (WNW) 19:13:57 437.475
JUGNU 29 Mar 19:06:00 19:07:26 11° 194° (SSW) 19:08:45 437.505
PRISM 29 Mar 19:11:48 19:14:38 18° 94° (E) 19:17:35 437.425
SO-50 29 Mar 19:14:57 19:19:25 57° 116° (ESE) 19:24:04 436.795
STRAND 1 29 Mar 19:17:04 19:20:00 16° 91° (E) 19:23:10 437.568
GONETS M04 29 Mar 19:27:55 19:35:34 38° 88° (E) 19:43:27
HO-68 29 Mar 19:28:16 19:29:49 11° 56° (NE) 19:31:52 435.675
BEESAT 3 29 Mar 19:28:46 19:32:12 25° 52° (NE) 19:35:39 437.485
M-CUBED/EXP-1 PRIME 29 Mar 19:29:13 19:33:49 43° 292° (WNW) 19:38:17 437.505
RS-15 29 Mar 19:40:05 19:50:52 73° 115° (ESE) 20:01:50 29.354- 29.394
BRITE-PL 29 Mar 19:53:19 19:55:18 13° 69° (ENE) 19:57:28 437.365/2234.400
CUBESAT XI-V 29 Mar 20:02:15 20:06:54 82° 283° (WNW) 20:11:29 437.345
SRMSAT 29 Mar 20:04:11 20:06:57 13° 191° (S) 20:09:37 437.500
AIST 2 29 Mar 20:05:06 20:08:09 19° 49° (NE) 20:11:16 435.215
CUTE-I 29 Mar 20:24:08 20:27:16 15° 269° (W) 20:30:07 437.470
Cubesat XI-IV 29 Mar 20:24:28 20:27:32 15° 269° (W) 20:30:19 437.490
CANX-2 29 Mar 20:24:38 20:27:00 15° 69° (ENE) 20:29:32 2200.000
DOVE 4 29 Mar 20:27:20 20:28:39 11° 68° (ENE) 20:30:11 437.250
BEESAT 2 29 Mar 20:29:21 20:33:29 80° 241° (WSW) 20:37:32 435.950
GOMX 1 29 Mar 20:37:16 20:40:52 24° 72° (ENE) 20:44:23 467.674
CUTE 1.7 + AOD 2 29 Mar 20:37:51 20:40:51 19° 70° (ENE) 20:43:58 437.475
PRISM 29 Mar 20:46:32 20:50:12 29° 288° (WNW) 20:53:46 437.425
STRAND 1 29 Mar 20:54:37 20:59:34 50° 287° (WNW) 21:04:27 437.568
SO-50 29 Mar 20:57:21 21:00:24 17° 315° (NW) 21:03:23 436.795
CUSAT 1 29 Mar 20:59:00 21:00:39 14° 96° (E) 21:02:19 437.405
AAUSAT CUBESAT 2 29 Mar 21:01:21 21:04:25 21° 71° (ENE) 21:07:36 437.432
SEEDS 29 Mar 21:05:52 21:09:38 34° 73° (ENE) 21:13:29 437.485
BEESAT 3 29 Mar 21:06:51 21:10:11 24° 248° (WSW) 21:13:24 437.485
HO-68 29 Mar 21:09:22 21:16:26 69° 72° (ENE) 21:23:35 435.675
GONETS M04 29 Mar 21:24:14 21:32:22 41° 285° (WNW) 21:40:26
COMPASS 1 29 Mar 21:27:37 21:31:39 50° 75° (ENE) 21:35:45 437.405
Oscar 11 29 Mar 21:28:33 21:31:41 21° 70° (ENE) 21:34:57 145.826/435.025
BRITE-PL 29 Mar 21:28:52 21:33:34 53° 260° (W) 21:37:57 437.365/2234.400
CINEMA 3 29 Mar 21:39:28 21:43:21 38° 74° (ENE) 21:47:15 145.822/145.860
FUNcube-1 29 Mar 21:41:04 21:42:53 13° 68° (ENE) 21:44:54 145.935
AIST 2 29 Mar 21:43:00 21:46:54 36° 246° (WSW) 21:50:42 435.215
UWE-3 29 Mar 21:44:59 21:47:50 19° 70° (ENE) 21:50:48 435.000/436.395/437.385
DANDE 29 Mar 21:48:36 21:51:53 70° 98° (E) 21:54:39 436.750
CUBEBUG 2 29 Mar 21:49:59 21:53:25 26° 72° (ENE) 21:56:55 437.445
ZACube-1 29 Mar 21:52:58 21:55:48 18° 70° (ENE) 21:58:44 437.345
RS-15 29 Mar 21:54:49 22:04:21 32° 319° (NW) 22:13:51 29.354- 29.394
CANX-2 29 Mar 21:58:41 22:02:39 38° 262° (W) 22:06:38 2200.000
DOVE 4 29 Mar 22:01:49 22:06:07 51° 260° (W) 22:10:15 437.250
CUTE 1.7 + AOD 2 29 Mar 22:12:53 22:16:36 29° 264° (W) 22:20:19 437.475
DELFI C3 29 Mar 22:13:27 22:17:23 51° 75° (ENE) 22:21:23 145.870
GOMX 1 29 Mar 22:15:12 22:18:58 25° 264° (W) 22:22:30 467.674
UKube-1 29 Mar 22:34:03 22:38:09 44° 73° (ENE) 22:42:18 .
AAUSAT CUBESAT 2 29 Mar 22:36:22 22:39:56 26° 265° (W) 22:43:27 437.432
HUMSAT D 29 Mar 22:40:35 22:44:12 32° 73° (ENE) 22:47:53 437.325/437.525
SEEDS 29 Mar 22:42:52 22:45:36 16° 268° (W) 22:48:11 437.485
DX 1 29 Mar 22:44:28 22:48:47 63° 75° (ENE) 22:53:06 434.975-435.025
HO-68 29 Mar 22:59:51 23:04:50 19° 269° (W) 23:09:28 435.675
Oscar 11 29 Mar 23:03:57 23:07:43 29° 264° (W) 23:11:28 145.826/435.025
ISS 29 Mar 23:04:20 23:07:35 87° 143° (SE) 23:10:51 145.825
COMPASS 1 29 Mar 23:06:38 23:07:44 11° 271° (W) 23:08:33 437.405
FUNcube-1 29 Mar 23:14:57 23:18:54 42° 262° (W) 23:22:51 145.935
CINEMA 3 29 Mar 23:18:36 23:20:50 13° 269° (W) 23:22:48 145.822/145.860
POPSAT HIP 1 29 Mar 23:20:26 23:21:35 11° 90° (E) 23:23:00 437.405
UWE-3 29 Mar 23:20:36 23:24:14 28° 264° (W) 23:27:49 435.000/436.395/437.385
50 SAT 29 Mar 23:22:35 23:26:28 70° 77° (ENE) 23:30:23 437.505
CUBEBUG 1 29 Mar 23:25:22 23:29:14 31° 72° (ENE) 23:33:08 437.445
VELOX 1 29 Mar 23:25:44 23:30:11 75° 76° (ENE) 23:34:37 145.980
CUBEBUG 2 29 Mar 23:27:01 23:30:10 20° 266° (W) 23:33:10 437.445
ZACube-1 29 Mar 23:28:22 23:32:00 29° 264° (W) 23:35:37 437.345
NANOSAT C BR1 29 Mar 23:29:50 23:32:11 15° 92° (E) 23:34:44 145.865
AISAT 29 Mar 23:30:34 23:35:01 89° 78° (ENE) 23:39:29 437.250
POLYITAN 1 29 Mar 23:34:01 23:36:49 18° 93° (E) 23:39:46 437.675
UNISAT 6 29 Mar 23:36:04 23:40:24 40° 98° (E) 23:44:49 437.425
TIGRISAT 29 Mar 23:46:02 23:50:31 51° 100° (E) 23:55:04 435.000
PCSat 29 Mar 23:47:25 23:51:20 20° 50° (NE) 23:55:22 145.827
ESTCUBE 1 30 Mar 00:01:13 00:05:46 88° 259° (WSW) 00:10:21 437.505/2401.250
QB50P1 30 Mar 00:10:03 00:14:08 47° 99° (E) 00:18:14 145.935-145.965
DUCHIFAT 1 30 Mar 00:11:41 00:15:46 48° 99° (E) 00:19:51 145.980
UKube-1 30 Mar 00:12:20 00:14:35 13° 268° (W) 00:16:36 .
ANTELSAT 30 Mar 00:16:29 00:21:04 70° 284° (WNW) 00:25:44 437.575/2403.000
RS-15 30 Mar 00:17:24 00:21:59 13° 353° (N) 00:26:27 29.354- 29.394
HUMSAT D 30 Mar 00:17:28 00:20:06 16° 268° (W) 00:22:35 437.325/437.525
QB50P2 30 Mar 00:24:54 00:29:09 75° 102° (ESE) 00:33:24 145.880/145.840
ISS 30 Mar 00:42:47 00:44:25 13° 335° (NNW) 00:45:58 145.825
BUGSAT 1 30 Mar 00:50:44 00:54:46 77° 284° (WNW) 00:58:47 437.445
POPSAT HIP 1 30 Mar 00:53:43 00:57:49 49° 286° (WNW) 01:01:54 437.405
TISAT 1 30 Mar 00:56:32 01:00:45 73° 76° (ENE) 01:04:57 437.305
CUBEBUG 1 30 Mar 01:02:23 01:05:40 20° 267° (W) 01:08:49 437.445
NANOSAT C BR1 30 Mar 01:04:19 01:08:14 37° 287° (WNW) 01:12:06 145.865
SPROUT 30 Mar 01:08:27 01:12:44 68° 259° (W) 01:17:00 437.525
POLYITAN 1 30 Mar 01:09:03 01:12:51 32° 288° (WNW) 01:16:37 437.675
ITUPSAT 1 30 Mar 01:09:12 01:11:50 15° 67° (ENE) 01:14:42 437.325
UNISAT 6 30 Mar 01:13:48 01:16:56 18° 291° (WNW) 01:19:54 437.425
YUBILEINY 30 Mar 01:23:29 01:32:05 55° 78° (ENE) 01:40:39 435.215
TIGRISAT 30 Mar 01:24:24 01:26:54 14° 292° (WNW) 01:29:13 435.000
PCSat 30 Mar 01:29:50 01:35:07 53° 248° (WSW) 01:40:21 145.827
QB50P1 30 Mar 01:47:41 01:49:40 13° 292° (WNW) 01:51:25 145.935-145.965
DUCHIFAT 1 30 Mar 01:49:22 01:51:14 12° 292° (WNW) 01:52:53 145.980
Oscar 19 30 Mar 01:51:12 01:54:27 17° 92° (E) 01:57:56 437.125/150
SWISSCUBE 30 Mar 01:54:37 01:59:15 51° 74° (ENE) 02:03:55 437.505
BEESAT 30 Mar 01:57:31 02:02:08 50° 73° (ENE) 02:06:47 436.000
STARS 30 Mar 02:31:54 02:33:20 12° 66° (ENE) 02:35:01 437.465
RS-15 30 Mar 02:33:09 02:40:50 20° 29° (NNE) 02:49:09 29.354- 29.394
ITUPSAT 1 30 Mar 02:44:41 02:49:21 51° 260° (W) 02:54:04 437.325
ITAMSAT 1 30 Mar 02:57:12 03:01:14 24° 94° (E) 03:05:25 435.822/435.867
YUBILEINY 30 Mar 03:21:16 03:28:28 28° 275° (W) 03:35:20 435.215
Oscar 19 30 Mar 03:29:08 03:34:06 48° 287° (WNW) 03:39:03 437.125/150
KKS-1 30 Mar 03:34:16 03:38:43 80° 259° (W) 03:43:09 437.445
SWISSCUBE 30 Mar 03:34:49 03:37:28 14° 269° (W) 03:39:52 437.505
O/OREOS (USA 219) 30 Mar 03:35:41 03:38:15 15° 101° (E) 03:41:01 437.305
BEESAT 30 Mar 03:37:38 03:40:19 14° 269° (W) 03:42:46 436.000
Gurwin Techsat 1B 30 Mar 03:48:29 03:53:47 64° 101° (E) 03:59:03 435.225
SO-50 30 Mar 03:49:38 03:53:43 26° 50° (NE) 03:57:51 436.795
AO-7 30 Mar 03:54:55 03:58:16 13° 88° (E) 04:02:20 29.400- 29.500
STARS 30 Mar 04:05:05 04:09:23 55° 260° (W) 04:13:41 437.465
HORYU 2 30 Mar 04:06:07 04:09:14 19° 93° (E) 04:12:30 437.375
JAS-2 30 Mar 04:09:20 04:13:08 15° 85° (E) 04:17:16 435.910
ITAMSAT 1 30 Mar 04:36:09 04:40:50 35° 289° (WNW) 04:45:28 435.822/435.867
M-CUBED/EXP-1 PRIME 30 Mar 04:42:28 04:44:25 14° 61° (ENE) 04:46:39 437.505
RS-15 30 Mar 04:44:45 04:56:12 65° 56° (NE) 05:08:11 29.354- 29.394
VERMONT LUNAR 30 Mar 04:54:00 04:56:50 26° 148° (SSE) 04:59:42 437.305
AIST 1 30 Mar 05:02:06 05:06:30 77° 277° (W) 05:10:54
O/OREOS (USA 219) 30 Mar 05:12:59 05:17:22 42° 295° (WNW) 05:21:44 437.305
MOZHAYETS 4 30 Mar 05:13:26 05:17:59 62° 75° (ENE) 05:22:35
SO-50 30 Mar 05:29:49 05:34:22 36° 246° (WSW) 05:38:48 436.795
Gurwin Techsat 1B 30 Mar 05:30:20 05:33:17 15° 295° (WNW) 05:35:58 435.225
ISS 30 Mar 05:34:36 05:37:22 26° 34° (NNE) 05:40:08 145.825
PHONESAT 2.4 30 Mar 05:39:42 05:42:37 25° 147° (SSE) 05:45:35 2401.200-2431.200
HORYU 2 30 Mar 05:41:55 05:46:00 34° 288° (WNW) 05:50:02 437.375
GONETS M04 30 Mar 05:43:20 05:47:43 15° 62° (ENE) 05:52:46
AO-7 30 Mar 05:44:01 05:52:21 84° 106° (ESE) 06:00:41 29.400- 29.500
AUBIESAT-1 30 Mar 05:49:47 05:53:44 73° 71° (ENE) 05:58:03 437.475
JAS-2 30 Mar 05:51:34 05:59:20 85° 283° (WNW) 06:06:20 435.910
M-CUBED/EXP-1 PRIME 30 Mar 06:15:04 06:18:52 46° 257° (WSW) 06:23:00 437.505
STRAND 1 30 Mar 06:30:12 06:33:32 18° 67° (ENE) 06:37:03 437.568
VERMONT LUNAR 30 Mar 06:31:04 06:34:23 62° 342° (NNW) 06:37:43 437.305
MOZHAYETS 4 30 Mar 06:54:37 06:55:43 10° 271° (W) 06:56:28
RS-15 30 Mar 06:58:05 07:08:09 33° 253° (WSW) 07:18:07 29.354- 29.394
CUTE-I 30 Mar 07:02:12 07:06:44 29° 96° (E) 07:11:21 437.470
CUBESAT XI-V 30 Mar 07:02:20 07:07:01 68° 76° (ENE) 07:11:43 437.345
Cubesat XI-IV 30 Mar 07:02:35 07:07:09 30° 96° (E) 07:11:48 437.490
ISS 30 Mar 07:11:00 07:13:43 25° 229° (SW) 07:16:25 145.825
PHONESAT 2.4 30 Mar 07:17:17 07:20:47 67° 340° (NNW) 07:24:19 2401.200-2431.200
PRISM 30 Mar 07:33:07 07:37:18 61° 260° (W) 07:41:30 437.425
CUSAT 1 30 Mar 07:35:47 07:38:52 18° 76° (ENE) 07:42:43 437.405
GONETS M04 30 Mar 07:37:14 07:46:08 86° 84° (E) 07:55:00
AO-7 30 Mar 07:38:37 07:44:19 20° 303° (WNW) 07:49:39 29.400- 29.500
JAS-2 30 Mar 07:38:52 07:43:15 16° 301° (WNW) 07:47:05 435.910
STRAND 1 30 Mar 08:07:26 08:12:24 48° 260° (W) 08:17:22 437.568
VERMONT LUNAR 30 Mar 08:09:20 08:12:24 32° 359° (N) 08:15:29 437.305
DANDE 30 Mar 08:28:46 08:32:53 43° 81° (E) 08:38:23 436.750
CUTE-I 30 Mar 08:42:11 08:46:47 30° 291° (WNW) 08:51:19 437.470
Cubesat XI-IV 30 Mar 08:42:38 08:47:13 29° 291° (WNW) 08:51:43 437.490
HO-68 30 Mar 08:43:15 08:46:20 14° 88° (E) 08:49:58 435.675
PHONESAT 2.4 30 Mar 08:56:11 08:59:27 34° 358° (N) 09:02:44 2401.200-2431.200
CUSAT 1 30 Mar 09:17:08 09:21:35 44° 263° (W) 09:27:22 437.405
COMPASS 1 30 Mar 09:17:11 09:17:46 10° 89° (E) 09:18:40 437.405
BRITE-PL 30 Mar 09:36:06 09:40:16 56° 100° (E) 09:44:41 437.365/2234.400
GONETS M04 30 Mar 09:36:49 09:42:00 16° 279° (W) 09:46:35
CINEMA 3 30 Mar 09:38:34 09:40:20 12° 91° (E) 09:42:25 145.822/145.860
CANX-2 30 Mar 09:46:51 09:50:58 43° 98° (E) 09:55:05 2200.000
VERMONT LUNAR 30 Mar 09:47:11 09:50:28 51° 15° (NNE) 09:53:46 437.305
CUTE 1.7 + AOD 2 30 Mar 10:00:34 10:04:49 57° 100° (E) 10:09:03 437.475
DOVE 4 30 Mar 10:03:10 10:07:25 48° 100° (E) 10:11:55 437.250
DANDE 30 Mar 10:13:20 10:16:13 16° 264° (W) 10:19:18 436.750
GOMX 1 30 Mar 10:18:27 10:22:46 72° 283° (WNW) 10:27:19 467.674
BEESAT 2 30 Mar 10:20:44 10:24:33 39° 115° (ESE) 10:28:27 435.950
AAUSAT CUBESAT 2 30 Mar 10:21:48 10:25:59 58° 100° (E) 10:30:09 437.432
HO-68 30 Mar 10:27:48 10:35:03 87° 286° (WNW) 10:42:15 435.675
SEEDS 30 Mar 10:28:30 10:32:48 79° 283° (WNW) 10:37:04 437.485
UNISAT 6 30 Mar 10:33:03 10:36:25 24° 71° (ENE) 10:39:54 437.425
PHONESAT 2.4 30 Mar 10:34:43 10:38:11 51° 15° (NNE) 10:41:39 2401.200-2431.200
DX 1 30 Mar 10:37:39 10:39:41 13° 91° (E) 10:41:57 434.975-435.025
TIGRISAT 30 Mar 10:42:33 10:46:12 29° 72° (ENE) 10:49:58 435.000
COMPASS 1 30 Mar 10:49:43 10:53:52 53° 285° (WNW) 10:58:00 437.405
Oscar 11 30 Mar 10:53:38 10:57:58 62° 100° (E) 11:02:16 145.826/435.025
BEESAT 3 30 Mar 10:56:31 11:00:33 63° 301° (WNW) 11:04:40 437.485
QB50P1 30 Mar 11:00:30 11:03:53 24° 71° (ENE) 11:07:20 145.935-145.965
DUCHIFAT 1 30 Mar 11:01:49 11:05:12 24° 71° (ENE) 11:08:40 145.980
50 SAT 30 Mar 11:05:44 11:06:52 11° 90° (E) 11:08:17 437.505
FUNcube-1 30 Mar 11:05:56 11:10:07 42° 98° (E) 11:14:24 145.935
UWE-3 30 Mar 11:12:25 11:16:51 66° 101° (E) 11:21:23 435.000/436.395/437.385
ANTELSAT 30 Mar 11:12:41 11:16:54 71° 77° (ENE) 11:21:14 437.575/2403.000
CINEMA 3 30 Mar 11:13:31 11:17:51 51° 285° (WNW) 11:22:22 145.822/145.860
QB50P2 30 Mar 11:15:06 11:18:59 37° 73° (ENE) 11:22:53 145.880/145.840
BRITE-PL 30 Mar 11:17:33 11:18:31 10° 292° (WNW) 11:19:13 437.365/2234.400
ZACube-1 30 Mar 11:19:02 11:23:24 62° 100° (E) 11:27:52 437.345
CUBEBUG 2 30 Mar 11:19:19 11:23:48 84° 280° (W) 11:28:24 437.445
VELOX 1 30 Mar 11:20:32 11:23:27 18° 93° (E) 11:26:31 145.980
CANX-2 30 Mar 11:24:10 11:26:35 14° 292° (WNW) 11:28:48 2200.000
VERMONT LUNAR 30 Mar 11:25:01 11:28:07 35° 210° (SSW) 11:31:13 437.305
AISAT 30 Mar 11:25:19 11:28:37 21° 94° (E) 11:32:01 437.250
DELFI C3 30 Mar 11:31:10 11:35:13 57° 284° (WNW) 11:39:13 145.870
AIST 2 30 Mar 11:37:34 11:41:48 83° 299° (WNW) 11:46:07 435.215
BUGSAT 1 30 Mar 11:37:46 11:41:45 47° 75° (ENE) 11:45:45 437.445
CUTE 1.7 + AOD 2 30 Mar 11:38:58 11:40:18 11° 293° (WNW) 11:41:23 437.475
DOVE 4 30 Mar 11:42:40 11:44:55 13° 291° (WNW) 11:47:00 437.250
POPSAT HIP 1 30 Mar 11:43:17 11:47:30 81° 77° (ENE) 11:51:44 437.405
NANOSAT C BR1 30 Mar 11:53:30 11:57:43 76° 258° (WSW) 12:01:56 145.865
ESTCUBE 1 30 Mar 11:57:44 12:01:22 24° 95° (E) 12:05:04 437.505/2401.250
POLYITAN 1 30 Mar 11:58:40 12:02:51 63° 259° (W) 12:07:02 437.675
BEESAT 2 30 Mar 12:00:02 12:02:54 17° 311° (NW) 12:05:40 435.950
AAUSAT CUBESAT 2 30 Mar 12:00:18 12:01:11 10° 293° (WNW) 12:01:47 437.432
UKube-1 30 Mar 12:00:28 12:04:45 63° 285° (WNW) 12:09:00 .
HUMSAT D 30 Mar 12:02:41 12:06:58 83° 284° (WNW) 12:11:16 437.325/437.525
UNISAT 6 30 Mar 12:09:39 12:13:10 24° 265° (W) 12:16:37 437.425
DX 1 30 Mar 12:12:05 12:16:13 43° 287° (WNW) 12:20:18 434.975-435.025
PHONESAT 2.4 30 Mar 12:13:09 12:16:29 38° 210° (SSW) 12:19:49 2401.200-2431.200
HO-68 30 Mar 12:17:58 12:21:55 15° 301° (WNW) 12:25:28 435.675
TIGRISAT 30 Mar 12:19:56 12:23:03 19° 267° (W) 12:26:03 435.000
Oscar 11 30 Mar 12:32:41 12:33:41 10° 294° (WNW) 12:34:24 145.826/435.025
QB50P1 30 Mar 12:36:19 12:39:43 23° 265° (W) 12:43:02 145.935-145.965
DUCHIFAT 1 30 Mar 12:37:37 12:41:00 22° 265° (W) 12:44:17 145.980
50 SAT 30 Mar 12:38:12 12:42:04 45° 286° (WNW) 12:45:57 437.505
FUNcube-1 30 Mar 12:43:29 12:46:11 16° 291° (WNW) 12:48:44 145.935
TISAT 1 30 Mar 12:45:49 12:48:00 14° 92° (E) 12:50:22 437.305
UWE-3 30 Mar 12:51:59 12:52:58 10° 293° (WNW) 12:53:39 435.000/436.395/437.385
QB50P2 30 Mar 12:52:32 12:55:04 15° 268° (W) 12:57:26 145.880/145.840
CUBEBUG 1 30 Mar 12:52:58 12:57:19 84° 281° (W) 13:01:37 437.445
VELOX 1 30 Mar 12:56:10 13:00:10 34° 288° (WNW) 13:04:06 145.980
ZACube-1 30 Mar 12:58:05 12:59:22 11° 293° (WNW) 13:00:22 437.345
SPROUT 30 Mar 12:58:43 13:02:15 25° 95° (E) 13:05:51 437.525
AISAT 30 Mar 13:01:26 13:05:16 29° 288° (WNW) 13:09:01 437.250
Oscar 19 30 Mar 13:05:25 13:08:53 19° 67° (ENE) 13:12:31 437.125/150
BUGSAT 1 30 Mar 13:16:07 13:17:34 11° 269° (W) 13:18:44 437.445
JUGNU 30 Mar 13:26:11 13:27:31 11° 166° (SSE) 13:28:59 437.505
ESTCUBE 1 30 Mar 13:34:26 13:38:13 26° 289° (WNW) 13:41:54 437.505/2401.250
O/OREOS (USA 219) 30 Mar 13:47:34 13:50:43 19° 59° (ENE) 13:54:00 437.305
SWISSCUBE 30 Mar 13:59:19 14:02:15 17° 92° (E) 14:05:24 437.505
BEESAT 30 Mar 14:02:09 14:05:01 16° 92° (E) 14:08:07 436.000
ITAMSAT 1 30 Mar 14:12:16 14:16:34 28° 69° (ENE) 14:21:00 435.822/435.867
YUBILEINY 30 Mar 14:19:57 14:28:39 70° 93° (E) 14:37:27 435.215
TISAT 1 30 Mar 14:20:06 14:24:01 38° 287° (WNW) 14:27:53 437.305
PCSat 30 Mar 14:25:45 14:30:23 31° 109° (ESE) 14:35:09 145.827
SPROUT 30 Mar 14:34:52 14:38:16 23° 289° (WNW) 14:41:34 437.525
Oscar 19 30 Mar 14:43:04 14:47:57 44° 261° (W) 14:52:50 437.125/150
ITUPSAT 1 30 Mar 14:48:20 14:53:00 52° 100° (E) 14:57:40 437.325
AO-7 30 Mar 14:51:04 14:55:47 17° 56° (NE) 15:00:55 29.400- 29.500
HORYU 2 30 Mar 15:03:06 15:04:56 13° 67° (ENE) 15:07:00 437.375
Gurwin Techsat 1B 30 Mar 15:06:30 15:11:46 75° 76° (ENE) 15:17:07 435.225
JUGNU 30 Mar 15:12:09 15:15:49 17° 176° (S) 15:19:31 437.505
AIST 1 30 Mar 15:13:31 15:16:30 19° 74° (ENE) 15:19:36
O/OREOS (USA 219) 30 Mar 15:26:09 15:30:19 36° 255° (WSW) 15:34:23 437.305
KKS-1 30 Mar 15:29:03 15:32:38 24° 95° (E) 15:36:19 437.445
SWISSCUBE 30 Mar 15:35:51 15:40:22 42° 288° (WNW) 15:44:51 437.505
BEESAT 30 Mar 15:38:35 15:43:08 43° 287° (WNW) 15:47:37 436.000
ITAMSAT 1 30 Mar 15:51:22 15:56:00 31° 264° (W) 16:00:34 435.822/435.867
STARS 30 Mar 15:58:06 16:02:03 32° 97° (E) 16:06:03 437.465
JAS-2 30 Mar 15:59:35 16:05:35 34° 66° (ENE) 16:12:14 435.910
PCSat 30 Mar 16:08:56 16:13:46 32° 305° (NW) 16:18:35 145.827
SRMSAT 30 Mar 16:13:52 16:17:10 15° 172° (S) 16:20:30 437.500
YUBILEINY 30 Mar 16:19:44 16:26:25 22° 293° (WNW) 16:32:42 435.215
ITUPSAT 1 30 Mar 16:27:46 16:30:31 15° 294° (WNW) 16:33:02 437.325
HORYU 2 30 Mar 16:36:53 16:41:11 52° 260° (W) 16:45:33 437.375
AO-7 30 Mar 16:39:17 16:47:36 86° 72° (ENE) 16:55:56 29.400- 29.500
AIST 1 30 Mar 16:50:31 16:54:14 28° 269° (W) 16:57:50
Gurwin Techsat 1B 30 Mar 16:50:51 16:52:25 11° 272° (W) 16:53:36 435.225
JUGNU 30 Mar 17:00:32 17:04:08 16° 186° (S) 17:07:42 437.505
KKS-1 30 Mar 17:05:32 17:09:14 25° 289° (WNW) 17:12:51 437.445
MOZHAYETS 4 30 Mar 17:12:43 17:15:54 19° 92° (E) 17:19:14
STARS 30 Mar 17:35:08 17:38:19 19° 291° (WNW) 17:41:23 437.465
